sat.trackr.live / text

‹ back to catalog

NEE-02 KRYSAOR

NORAD 39441 · 2013-066AB

PAYLOAD ACTIVE UNKNOWN

§ Identity

Operator
Country
ECU
Launch date
2013-11-21
Launch site
DLS
Launch vehicle
Mass (kg)
RCS (m²)
0.01

Purposes: tech_demo

External: N2YO · Heavens-Above · Gunter

§ Orbital elements

Epoch: 2026-05-24T18:50:36.076128Z

Period
96.87 min
Inclination
97.8887°
Eccentricity
0.0066999
Mean motion
14.86510715 rev/d
Perigee alt
562.0 km
Apogee alt
655.7 km
Semi-major
6,987.0 km
B*
1.4932e-4
RAAN
84.1704°
Arg perigee
145.3315°
Mean anomaly
215.2296°
Rev number
67,272

§ Raw data

NEE-02 KRYSAOR1 39441U 13066AB  26144.78513977  .00001318  00000+0  14932-3 0  99952 39441  97.8887  84.1704 0066999 145.3315 215.2296 14.86510715672724

JSON: /api/v1/satellites/39441 · /tle

For live sub-satellite position, see the globe view (requires WebGL).

§ Visibility from observer

Set your observer location to see the next 7 days of passes ≥ 10°. The values pass through the URL so the page stays shareable.

No JS? Fill the form by hand. The geolocation button needs JavaScript.

§ Radio — SatNOGS DB

ModeDescriptionDownlinkUplink
FM Downlink 980.000 MHz

1 transmitter · refreshed weekly from db.satnogs.org